Погода в Селищах

Россия / Новгородская область     58°53′27″N   31°39′52″E
темп.,
°C
ветер,
м/с
пор.,
м/с
влажн.,
%
обл.,
%
осадки,
мм/ч
давл.,
гПа
погр.,
м
24 июля, сб
сб2400:00+14ссз1268100 0.0 101131
03:00+13ссз2266100 0.0 101344
06:00+13ссз247099 0.0 1013135
09:00+17сз24504 0.0 1014961
12:00+20сз343619 0.0 10152193
15:00+22сз243282 0.0 10142601
18:00+21ссз124399 0.0 10151300
21:00+16с01615 0.0 101611
25 июля, вс
вс2500:00+12с116618 0.0 101710
03:00+11зсз11685 0.0 101810
06:00+12юз11705 0.0 101912
09:00+18зюз234764 0.0 1019451
12:00+21з124256 0.0 1019756
15:00+25зюз133219 0.0 10192210
18:00+25зюз233531 0.0 10192346
21:00+18ююз226536 0.0 101922
26 июля, пн
пн2600:00+18ююз246299 0.0 102183
03:00+17ююз225955 0.0 102144
06:00+16ююз117414 0.0 102111
09:00+22ююз225643 0.0 1022432
12:00+27юз223947 0.0 10221623
15:00+28зюз123377 0.0 10212643
18:00+28юз11365 0.0 10202357
21:00+21ю22626 0.0 102011
27 июля, вт
вт2700:00+18ююв226323 0.0 102115
03:00+17ю126964 0.0 102113
06:00+18ююв2270100 0.0 102135
09:00+21ююв136755 0.0 1021146
12:00+28ю22370 0.0 10201357
15:00+30юз223288 0.0 10192566
18:00+29юз22372 0.0 10182236
21:00+22ююв22620 0.0 101712
28 июля, ср
ср2800:00+19ю24611 0.0 101762
03:00+20ю286898 0.0 1015205
06:00+18ююв39785 0.0 1014192
09:00+24ю365686 0.0 1012441
12:00+26ююз3750100 0.0 1011771
15:00+29ююз574584 0.0 10091706
18:00+26юз61154100 0.0 1007994
21:00+22ююз4106911 0.3 1007442